#timestamp,LO_Frequency,Hit,StdDev 
1541181615.9,286046996.6,N
1541181635.7,286046999.0,N
1541181655.5,286046998.8,N
1541181675.4,286046997.6,N
1541181695.2,286046996.7,N
1541181715.0,286046998.0,N
1541181715.9,286046998.0,N
1541181735.8,286046997.1,N
1541181755.6,286046996.6,N
1541181775.5,286046994.9,Y
1541181795.3,286046996.9,P
1541181815.1,286046997.4,P
1541181835.9,286046997.6,P
1541181855.7,286046999.5,N
1541181875.5,286046998.7,N
1541181895.4,286046996.6,Y
1541181915.2,286047000.9,P
1541181935.1,286047000.9,N
1541181936.0,286047000.9,N
1541181955.8,286046999.7,N
1541181975.6,286047001.8,N
1541181995.5,286047002.6,N
1541182015.3,286047000.6,N
1541182035.2,286047002.2,N
1541182055.9,286047002.6,N
1541182075.7,286047001.7,N
1541182095.6,286046999.7,N
1541182115.4,286047003.1,N
1541182135.2,286047005.3,Y
1541182155.1,286047004.4,P
1541182156.0,286047004.4,N
1541182175.8,286047005.7,P
1541182195.7,286047002.7,N
1541182215.5,286046999.9,N
1541182235.3,286047001.9,N
1541182255.2,286047002.1,N
1541182275.0,286047001.3,N
1541182275.9,286047001.3,N
1541182295.7,286047006.0,Y
1541182315.6,286046999.7,P
1541182335.4,286047002.7,N
1541182355.3,286046998.2,N
1541182375.1,286046999.6,N
1541182376.0,286046999.6,N
1541182395.8,286046999.6,N
1541182415.7,286046997.4,N
1541182435.5,286046996.1,N
1541182455.4,286046993.9,Y
1541182475.2,286046993.5,P
1541182495.0,286046995.7,N
1541182495.9,286046995.7,N
1541182515.8,286046993.5,Y
1541182535.6,286046999.1,P
1541182555.5,286046998.7,N
1541182575.3,286046999.3,N
1541182595.1,286046996.5,N
1541182615.9,286046998.7,N
1541182635.7,286046998.6,N
1541182655.5,286046998.8,N
1541182675.4,286046997.1,N
1541182695.2,286046997.3,N
1541182715.1,286046997.9,N
1541182716.0,286046997.9,N
1541182735.8,286046997.4,N
1541182755.6,286046998.4,N
1541182775.5,286046999.3,N
1541182795.3,286046998.5,N
1541182815.1,286047000.7,N
1541182835.9,286047004.4,Y
1541182855.7,286047003.6,P
1541182875.6,286047005.6,N
1541182895.4,286047003.8,N
1541182915.2,286047005.6,N
1541182935.1,286047004.7,N
1541182936.0,286047004.7,N
1541182955.8,286047005.1,N
1541182975.6,286047005.3,N
1541182995.5,286047005.8,N
1541183015.3,286047003.5,N
1541183035.2,286047006.7,Y
1541183055.9,286047005.8,P
1541183075.7,286047003.4,P
1541183095.6,286047002.5,N
1541183115.4,286047002.8,N
1541183135.3,286047000.8,N
1541183155.1,286046999.5,N
1541183156.0,286046999.5,N
1541183175.8,286046998.6,N
1541183195.7,286046997.5,N
1541183215.5,286046996.6,N
1541183235.3,286046997.7,N
1541183255.2,286046996.1,N
1541183275.0,286046993.4,N
1541183275.9,286046993.4,N
1541183295.8,286046994.0,N
1541183315.6,286046992.1,N
1541183335.4,286046993.2,N
1541183355.3,286046990.9,N
1541183375.1,286046990.2,N
1541183395.8,286046989.0,N
1541183415.7,286046989.0,N
1541183435.5,286046990.4,N
1541183455.4,286046988.9,N
1541183475.2,286046991.2,N
1541183495.0,286046991.6,N
1541183495.9,286046991.6,N
1541183515.8,286046988.9,N
1541183535.6,286046989.3,N
1541183555.5,286046987.1,N
1541183575.3,286046989.5,N
1541183595.1,286046989.5,N
1541183615.9,286046986.9,N
1541183635.7,286046988.2,N
1541183655.6,286046985.9,Y
1541183675.4,286046993.9,P
1541183695.2,286046994.2,P
1541183715.1,286046994.7,P
1541183716.0,286046994.7,Y
1541183735.8,286046999.7,P
1541183755.6,286047002.3,N
1541183775.5,286047002.1,N
1541183795.3,286046999.8,N
1541183815.2,286047002.6,N
1541183835.9,286047000.0,N
1541183855.7,286047001.9,N
1541183875.6,286047003.2,N
1541183895.4,286047003.5,N
1541183915.2,286047002.3,N
1541183935.1,286047000.4,N
1541183936.0,286047000.4,N
1541183955.8,286047000.2,N
1541183975.7,286047001.1,N
1541183995.5,286046998.5,N
1541184015.3,286046998.3,N
1541184035.2,286047001.0,N
1541184055.0,286047001.1,N
1541184055.9,286047001.1,N
1541184075.8,286046998.4,N
1541184095.6,286046999.6,N
1541184115.4,286046997.9,N
1541184135.3,286046997.4,N
1541184155.1,286046995.3,N
1541184175.8,286046994.9,N
1541184195.7,286046995.4,N
1541184215.5,286046995.5,N
1541184235.4,286046995.1,N
1541184255.2,286046995.7,N
1541184275.0,286046994.9,N
1541184275.9,286046994.9,N
1541184295.8,286046997.4,N
1541184315.6,286046994.1,N
1541184335.4,286046995.7,N
1541184355.3,286046996.2,N
1541184375.1,286046993.5,N
1541184395.9,286046992.1,N
1541184415.7,286046994.8,N
1541184435.5,286046994.8,N
1541184455.4,286046994.4,N
1541184475.2,286046992.3,N
1541184495.0,286046992.1,N
1541184496.0,286046992.1,N
1541184515.8,286046994.0,N
1541184535.6,286046994.1,N
1541184555.5,286046992.3,Y
1541184575.3,286046995.0,P
1541184595.1,286046997.9,P
1541184615.9,286046998.0,N
1541184635.7,286046994.9,Y
1541184655.6,286046998.1,P
1541184675.4,286047001.2,N
1541184695.2,286046998.7,N
1541184715.1,286047001.2,N
1541184716.0,286047001.2,N
1541184735.8,286046996.5,N
1541184755.6,286047001.1,N
1541184775.5,286047000.8,N
1541184795.3,286047002.6,N
1541184815.2,286047000.0,N
1541184835.9,286047000.4,N
1541184855.7,286046999.7,N
1541184875.6,286046999.8,N
1541184895.4,286047003.5,N
1541184915.3,286047002.2,N
1541184935.1,286047002.1,N
1541184936.0,286047002.1,N
1541184955.8,286047004.2,N
1541184975.7,286047001.9,N
1541184995.5,286047000.0,N
1541185015.3,286047000.4,N
1541185035.2,286047000.2,N
1541185055.0,286047000.0,N
1541185055.9,286047000.0,N
1541185075.8,286047000.3,N
1541185095.6,286047000.9,N
1541185115.4,286046998.2,N
1541185135.3,286046998.9,N
1541185155.1,286046997.0,N
1541185175.8,286047001.2,N
1541185195.7,286047001.0,N
